Location: �bnet
(46.9957°N, 8.4908°E)
Time: 09:43:18
(UTC+00:00)

OBJECT-B - Pass Details

Date: 11 May 2021
Orbit: 414 x 423 km, 97.0° (Epoch: 05 June)

Event Time Altitude Azimuth Distance (km) Brightness Sun altitude
Rises 19:41:55 0° 188° (S) 2,370 4.3 -8.3°
Reaches altitude 10° 19:44:03 10° 200° (SSW) 1,512 3.4 -8.5°
Maximum altitude 19:46:58 30° 264° (W) 789 2.6 -8.9°
Drops below altitude 10° 19:49:54 10° 328° (NNW) 1,526 5.0 -9.3°
Sets 19:52:04 0° 339° (NNW) 2,398 5.8 -9.6°
